9W2SHB-13 Weather Reports


time (UTC)temp
C
wind
direction
speed
KPH
gust
KPH
rain 1hr
cm
rain 24hr
cm
rain mn
cm
humidity
%
barometer
mb
20260502221506 28 0 0.0 0.0 0.00 0.00 0.00 66 1028.0
20260502220007 28 0 0.0 0.0 0.00 0.00 0.00 65 1027.8
20260502214506 28 0 0.0 0.0 0.00 0.00 0.00 65 1027.7
20260502213007 29 0 0.0 0.0 0.00 0.00 0.00 65 1027.7
20260502211507 29 0 0.0 0.0 0.00 0.00 0.00 65 1027.6
20260502210006 29 0 0.0 0.0 0.00 0.00 0.00 65 1027.5
20260502204506 29 0 0.0 0.0 0.00 0.00 0.00 65 1027.4
20260502203007 29 0 0.0 0.0 0.00 0.00 0.00 65 1027.3
20260502201506 29 0 0.0 0.0 0.00 0.00 0.00 65 1027.2
20260502200006 29 0 0.0 0.0 0.00 0.00 0.00 65 1027.4
20260502194507 30 0 0.0 0.0 0.00 0.00 0.00 65 1027.5
20260502193007 30 0 0.0 0.0 0.00 0.00 0.00 64 1027.7
20260502191508 30 0 0.0 0.0 0.00 0.00 0.00 65 1027.7
20260502190006 30 0 0.0 0.0 0.00 0.00 0.00 65 1027.7
20260502184506 30 0 0.0 0.0 0.00 0.00 0.00 65 1027.8
20260502183006 30 0 0.0 0.0 0.00 0.00 0.00 65 1028.0
20260502181506 30 0 0.0 0.0 0.00 0.00 0.00 65 1028.4
20260502163007 30 0 0.0 0.0 0.00 0.00 0.00 65 1030.4
20260502161507 30 0 0.0 0.0 0.00 0.00 0.00 65 1030.5
20260502151507 30 0 0.0 0.0 0.00 0.00 0.00 66 1030.7
20260502123007 31 0 0.0 0.0 0.00 0.00 0.00 67 1027.6
20260502121507 31 0 0.0 0.0 0.00 0.00 0.00 68 1027.4
20260502114506 31 0 0.0 0.0 0.00 0.00 0.00 66 1027.0
20260502113007 31 0 0.0 0.0 0.00 0.00 0.00 66 1027.0
20260502111507 31 0 0.0 0.0 0.00 0.00 0.00 66 1026.6
20260502110007 31 0 0.0 0.0 0.00 0.00 0.00 65 1026.3
20260502104507 31 0 0.0 0.0 0.00 0.00 0.00 65 1026.1
20260502103006 31 0 0.0 0.0 0.00 0.00 0.00 65 1025.8
20260502101507 31 0 0.0 0.0 0.00 0.00 0.00 65 1025.9
20260502091507 31 0 0.0 0.0 0.00 0.00 0.00 64 1025.1
20260502071507 32 0 0.0 0.0 0.00 0.00 0.00 57 1025.4
20260502070007 32 0 0.0 0.0 0.00 0.00 0.00 56 1025.7
20260502064506 32 0 0.0 0.0 0.00 0.00 0.00 57 1026.1
20260502063007 32 0 0.0 0.0 0.00 0.00 0.00 57 1026.3
20260502061507 32 0 0.0 0.0 0.00 0.00 0.00 58 1026.7
20260502060007 32 0 0.0 0.0 0.00 0.00 0.00 58 1027.0
20260502054507 32 0 0.0 0.0 0.00 0.00 0.00 58 1027.1
20260502053007 32 0 0.0 0.0 0.00 0.00 0.00 57 1027.4
20260502051507 32 0 0.0 0.0 0.00 0.00 0.00 57 1027.7
20260502050007 32 0 0.0 0.0 0.00 0.00 0.00 57 1027.8
20260502044506 32 0 0.0 0.0 0.00 0.00 0.00 57 1028.3
20260502043006 32 0 0.0 0.0 0.00 0.00 0.00 58 1028.5
20260502041507 32 0 0.0 0.0 0.00 0.00 0.00 58 1028.9
20260502040007 32 0 0.0 0.0 0.00 0.00 0.00 60 1029.0
20260502034507 31 0 0.0 0.0 0.00 0.00 0.00 61 1029.1
20260502033007 31 0 0.0 0.0 0.00 0.00 0.00 62 1029.3
20260502031507 31 0 0.0 0.0 0.00 0.00 0.00 63 1029.5
20260502030007 31 0 0.0 0.0 0.00 0.00 0.00 63 1029.4
20260502024507 30 0 0.0 0.0 0.00 0.00 0.00 64 1029.5
20260502023007 30 0 0.0 0.0 0.00 0.00 0.00 64 1029.6
20260502021507 30 0 0.0 0.0 0.00 0.00 0.00 65 1029.7
20260502020007 30 0 0.0 0.0 0.00 0.00 0.00 65 1029.6
20260502014506 30 0 0.0 0.0 0.00 0.00 0.00 66 1029.7
20260502013006 30 0 0.0 0.0 0.00 0.00 0.00 66 1029.6
20260502011507 29 0 0.0 0.0 0.00 0.00 0.00 66 1029.6
20260502010006 29 0 0.0 0.0 0.00 0.00 0.00 66 1029.5
20260502004507 29 0 0.0 0.0 0.00 0.00 0.00 67 1029.2
20260502003006 29 0 0.0 0.0 0.00 0.00 0.00 67 1029.1
20260502001507 29 0 0.0 0.0 0.00 0.00 0.00 67 1028.8
20260502000006 29 0 0.0 0.0 0.00 0.00 0.00 67 1028.6
20260501234506 29 0 0.0 0.0 0.00 0.00 0.00 67 1028.4
20260501233006 29 0 0.0 0.0 0.00 0.00 0.00 66 1028.3
20260501231507 29 0 0.0 0.0 0.00 0.00 0.00 67 1028.2
20260501230007 29 0 0.0 0.0 0.00 0.00 0.00 67 1027.7
20260501224507 29 0 0.0 0.0 0.00 0.00 0.00 66 1027.7
20260501223007 29 0 0.0 0.0 0.00 0.00 0.00 66 1027.5